Location: Bathurst
(33.4193°S, 149.5775°E)
Time: 21:46:19
(UTC+10:00)

Vanguard 2 - Visible Passes

Search period start: 13 June 2021 00:00
Search period end: 23 June 2021 00:00
Orbit: 552 x 2937 km, 32.9° (Epoch: 13 June)

Date Brightness Start Highest point End Pass type
(mag) Time Alt. Az. Time Alt. Az. Time Alt. Az.
13 Jun 11.0 04:34:42 10° NNE 04:38:37 14° NE 04:43:22 10° ENE visible
14 Jun 10.7 04:50:06 10° N 04:55:37 21° NE 05:03:14 10° E visible
15 Jun 10.4 05:06:28 10° NNW 05:12:44 30° NE 05:22:10 10° E visible
16 Jun 10.1 05:23:18 10° NNW 05:29:59 40° NE 05:40:40 10° E visible
17 Jun 10.6 03:37:57 10° NNE 03:40:06 12° NE 03:42:30 10° ENE visible
17 Jun 9.7 05:40:26 10° NW 05:47:23 51° NNE 05:58:58 10° E visible
18 Jun 10.2 03:54:43 15° NNE 03:57:10 19° NE 04:02:40 10° E visible
18 Jun 9.4 05:57:48 10° NW 06:04:56 63° NNE 06:17:10 10° E visible
19 Jun 9.7 04:12:06 22° N 04:14:19 27° NE 04:21:31 10° E visible
19 Jun 9.2 06:15:18 10° WNW 06:22:38 73° NNE 06:35:19 10° E visible
20 Jun 9.2 04:29:22 29° N 04:31:37 37° NE 04:39:57 10° E visible
20 Jun 9.2 06:32:56 10° WNW 06:40:26 82° N 06:53:29 10° E visible
21 Jun 8.9 04:46:35 34° NNW 04:49:02 50° NNE 04:58:09 10° E visible
22 Jun 10.7 03:02:18 11° ENE 03:02:18 11° ENE 03:02:54 10° ENE visible
22 Jun 8.6 05:03:44 34° NW 05:06:37 63° NNE 05:16:17 10° E visible
